| time (UTC) | temp C | wind direction | speed KPH | gust KPH | rain 1hr cm | rain 24hr cm | rain mn cm | humidity % | barometer mb |
| 20260831095029 | 11 | 360 | 6.4 | 0.0 | 0.00 | 0.00 | 0.00 | 80 | 1007.6 |
| 20260831094529 | 11 | 360 | 6.4 | 0.0 | 0.00 | 0.00 | 0.00 | 81 | 1007.6 |
| 20260831094130 | 10 | 360 | 4.8 | 0.0 | 0.00 | 0.00 | 0.00 | 82 | 1007.7 |
| 20260831093630 | 10 | 360 | 3.2 | 0.0 | 0.00 | 0.00 | 0.00 | 82 | 1007.8 |
| 20260831093031 | 10 | 360 | 1.6 | 0.0 | 0.00 | 0.00 | 0.00 | 82 | 1007.8 |
| 20260831092534 | 10 | 360 | 1.6 | 0.0 | 0.00 | 0.00 | 0.00 | 81 | 1007.9 |
| 20260831092028 | 10 | 360 | 1.6 | 0.0 | 0.00 | 0.00 | 0.00 | 81 | 1007.9 |
| 20260831091533 | 10 | 360 | 0.0 | 0.0 | 0.00 | 0.00 | 0.00 | 81 | 1007.9 |
| 20260831091027 | 10 | 360 | 0.0 | 0.0 | 0.00 | 0.00 | 0.00 | 80 | 1007.7 |
| 20260831090529 | 10 | 360 | 0.0 | 0.0 | 0.00 | 0.00 | 0.00 | 80 | 1007.8 |
| 20260831090027 | 11 | 360 | 1.6 | 0.0 | 0.00 | 0.00 | 0.00 | 80 | 1007.8 |
| 20260831085526 | 11 | 360 | 3.2 | 0.0 | 0.00 | 0.00 | 0.00 | 81 | 1007.8 |
| 20260831085025 | 11 | 360 | 1.6 | 0.0 | 0.00 | 0.00 | 0.00 | 81 | 1007.8 |
| 20260831084528 | 11 | 360 | 0.0 | 0.0 | 0.00 | 0.00 | 0.00 | 81 | 1007.7 |
| 20260831084025 | 10 | 360 | 1.6 | 0.0 | 0.00 | 0.00 | 0.00 | 81 | 1007.7 |
| 20260831083625 | 10 | 360 | 3.2 | 0.0 | 0.00 | 0.00 | 0.00 | 81 | 1007.7 |
| 20260831083027 | 10 | 360 | 3.2 | 0.0 | 0.00 | 0.00 | 0.00 | 80 | 1007.7 |
| 20260831082524 | 11 | 360 | 1.6 | 0.0 | 0.00 | 0.00 | 0.00 | 81 | 1007.6 |
| 20260831082024 | 11 | 360 | 1.6 | 0.0 | 0.00 | 0.00 | 0.00 | 82 | 1007.7 |
| 20260831081525 | 11 | 360 | 1.6 | 0.0 | 0.00 | 0.00 | 0.00 | 82 | 1007.7 |
| 20260831081024 | 11 | 360 | 1.6 | 0.0 | 0.00 | 0.00 | 0.00 | 81 | 1007.7 |
| 20260831080522 | 11 | 360 | 0.0 | 0.0 | 0.00 | 0.00 | 0.00 | 81 | 1007.7 |
| 20260831080024 | 11 | 360 | 0.0 | 0.0 | 0.00 | 0.00 | 0.00 | 82 | 1007.8 |
| 20260831075521 | 11 | 360 | 0.0 | 0.0 | 0.00 | 0.00 | 0.00 | 82 | 1007.6 |
| 20260831075020 | 11 | 360 | 0.0 | 0.0 | 0.00 | 0.00 | 0.00 | 81 | 1007.6 |
| 20260831074524 | 11 | 360 | 1.6 | 0.0 | 0.00 | 0.00 | 0.00 | 81 | 1007.6 |
| 20260831074019 | 11 | 360 | 3.2 | 0.0 | 0.00 | 0.00 | 0.00 | 81 | 1007.4 |
| 20260831073617 | 11 | 360 | 3.2 | 0.0 | 0.00 | 0.00 | 0.00 | 81 | 1007.5 |
| 20260831073016 | 11 | 360 | 4.8 | 0.0 | 0.00 | 0.00 | 0.13 | 81 | 1007.4 |
| 20260831072516 | 11 | 360 | 4.8 | 0.0 | 0.00 | 0.00 | 0.13 | 82 | 1007.5 |
| 20260831072015 | 11 | 360 | 4.8 | 0.0 | 0.00 | 0.00 | 0.13 | 83 | 1007.4 |
| 20260831071515 | 11 | 360 | 6.4 | 0.0 | 0.00 | 0.00 | 0.13 | 83 | 1007.4 |
| 20260831071015 | 11 | 360 | 6.4 | 0.0 | 0.00 | 0.00 | 0.13 | 83 | 1007.5 |
| 20260831070514 | 11 | 360 | 4.8 | 0.0 | 0.00 | 0.00 | 0.13 | 81 | 1007.5 |
| 20260831070014 | 11 | 360 | 3.2 | 0.0 | 0.00 | 0.00 | 0.13 | 81 | 1007.3 |
| 20260831065514 | 12 | 360 | 1.6 | 0.0 | 0.00 | 0.00 | 0.13 | 81 | 1007.3 |
| 20260831065014 | 12 | 360 | 1.6 | 0.0 | 0.00 | 0.00 | 0.13 | 82 | 1007.4 |
| 20260831064513 | 12 | 360 | 3.2 | 0.0 | 0.00 | 0.00 | 0.13 | 82 | 1007.3 |
| 20260831064012 | 12 | 360 | 4.8 | 0.0 | 0.00 | 0.00 | 0.13 | 83 | 1007.3 |
| 20260831063615 | 11 | 360 | 4.8 | 0.0 | 0.00 | 0.00 | 0.13 | 83 | 1007.3 |
| 20260831063016 | 11 | 360 | 4.8 | 0.0 | 0.00 | 0.00 | 0.13 | 83 | 1007.4 |
| 20260831062513 | 11 | 360 | 6.4 | 0.0 | 0.00 | 0.00 | 0.13 | 82 | 1007.5 |
| 20260831062013 | 12 | 360 | 6.4 | 0.0 | 0.00 | 0.00 | 0.13 | 82 | 1007.5 |
| 20260831061513 | 12 | 360 | 3.2 | 0.0 | 0.00 | 0.00 | 0.13 | 82 | 1007.5 |
| 20260831061016 | 12 | 360 | 3.2 | 0.0 | 0.00 | 0.00 | 0.13 | 82 | 1007.6 |
| 20260831060511 | 12 | 360 | 3.2 | 0.0 | 0.00 | 0.00 | 0.13 | 82 | 1007.7 |
| 20260831060012 | 12 | 360 | 3.2 | 0.0 | 0.00 | 0.00 | 0.13 | 83 | 1007.6 |
| 20260831055513 | 12 | 360 | 1.6 | 0.0 | 0.00 | 0.00 | 0.13 | 83 | 1007.5 |
| 20260831055012 | 12 | 360 | 1.6 | 0.0 | 0.00 | 0.00 | 0.13 | 83 | 1007.7 |
| 20260831054511 | 12 | 360 | 1.6 | 0.0 | 0.00 | 0.00 | 0.13 | 83 | 1007.8 |
| 20260831054013 | 12 | 360 | 1.6 | 0.0 | 0.00 | 0.00 | 0.13 | 83 | 1007.8 |
| 20260831053611 | 12 | 360 | 0.0 | 0.0 | 0.00 | 0.00 | 0.13 | 83 | 1007.8 |
| 20260831053011 | 12 | 360 | 0.0 | 0.0 | 0.00 | 0.00 | 0.13 | 83 | 1007.8 |
| 20260831052510 | 12 | 360 | 0.0 | 0.0 | 0.00 | 0.00 | 0.13 | 83 | 1007.9 |
| 20260831052009 | 12 | 360 | 1.6 | 0.0 | 0.00 | 0.00 | 0.13 | 82 | 1007.9 |
| 20260831051518 | 12 | 360 | 3.2 | 0.0 | 0.00 | 0.00 | 0.13 | 82 | 1007.8 |
| 20260831051009 | 12 | 360 | 1.6 | 0.0 | 0.00 | 0.00 | 0.13 | 82 | 1007.7 |
| 20260831050509 | 12 | 360 | 3.2 | 0.0 | 0.00 | 0.00 | 0.13 | 82 | 1007.7 |
| 20260831050009 | 12 | 360 | 3.2 | 0.0 | 0.00 | 0.00 | 0.13 | 83 | 1007.7 |
| 20260831045512 | 12 | 360 | 3.2 | 0.0 | 0.00 | 0.00 | 0.13 | 83 | 1007.7 |
| 20260831045009 | 12 | 360 | 3.2 | 0.0 | 0.00 | 0.00 | 0.13 | 83 | 1007.7 |
| 20260831044509 | 12 | 360 | 3.2 | 0.0 | 0.00 | 0.00 | 0.13 | 83 | 1007.8 |
| 20260831044009 | 12 | 360 | 3.2 | 0.0 | 0.00 | 0.00 | 0.13 | 83 | 1007.7 |
| 20260831043609 | 11 | 360 | 1.6 | 0.0 | 0.00 | 0.00 | 0.13 | 82 | 1007.8 |
| 20260831043009 | 11 | 360 | 1.6 | 0.0 | 0.00 | 0.00 | 0.13 | 81 | 1007.8 |
| 20260831042506 | 12 | 360 | 1.6 | 0.0 | 0.00 | 0.00 | 0.13 | 80 | 1007.6 |
| 20260831042004 | 12 | 360 | 3.2 | 0.0 | 0.00 | 0.00 | 0.13 | 80 | 1007.6 |
| 20260831041505 | 12 | 360 | 3.2 | 0.0 | 0.00 | 0.00 | 0.13 | 81 | 1007.8 |
| 20260831041005 | 12 | 360 | 1.6 | 0.0 | 0.00 | 0.00 | 0.13 | 80 | 1007.9 |
| 20260831040503 | 12 | 360 | 3.2 | 0.0 | 0.00 | 0.00 | 0.13 | 80 | 1007.8 |
| 20260831040002 | 13 | 360 | 1.6 | 0.0 | 0.00 | 0.00 | 0.13 | 79 | 1007.9 |
| 20260831035501 | 13 | 360 | 3.2 | 0.0 | 0.00 | 0.00 | 0.13 | 79 | 1007.9 |
| 20260831035100 | 13 | 360 | 3.2 | 0.0 | 0.00 | 0.00 | 0.13 | 79 | 1008.0 |
| 20260831035000 | 13 | 360 | 3.2 | 0.0 | 0.00 | 0.00 | 0.13 | 79 | 1007.9 |
| 20260831034600 | 13 | 360 | 4.8 | 0.0 | 0.00 | 0.00 | 0.13 | 78 | 1008.0 |
| 20260831034102 | 13 | 360 | 4.8 | 0.0 | 0.00 | 0.00 | 0.13 | 79 | 1007.9 |
| 20260831033600 | 13 | 360 | 6.4 | 0.0 | 0.00 | 0.00 | 0.13 | 78 | 1007.9 |
| 20260831033110 | 13 | 360 | 6.4 | 0.0 | 0.00 | 0.00 | 0.13 | 78 | 1007.9 |
| 20260831032601 | 13 | 360 | 6.4 | 0.0 | 0.00 | 0.00 | 0.13 | 77 | 1008.0 |
| 20260831032059 | 13 | 360 | 8.0 | 0.0 | 0.00 | 0.00 | 0.13 | 77 | 1007.9 |
| 20260831031557 | 13 | 360 | 6.4 | 0.0 | 0.00 | 0.00 | 0.13 | 76 | 1007.8 |
| 20260831031055 | 13 | 360 | 4.8 | 0.0 | 0.00 | 0.00 | 0.13 | 76 | 1007.8 |
| 20260831030556 | 14 | 360 | 3.2 | 0.0 | 0.00 | 0.00 | 0.13 | 76 | 1007.7 |
| 20260831030056 | 14 | 360 | 3.2 | 0.0 | 0.00 | 0.00 | 0.13 | 75 | 1007.7 |
| 20260831025552 | 14 | 360 | 3.2 | 0.0 | 0.00 | 0.00 | 0.13 | 75 | 1007.6 |
| 20260831025052 | 14 | 360 | 3.2 | 0.0 | 0.00 | 0.00 | 0.13 | 74 | 1007.4 |
| 20260831024550 | 15 | 360 | 4.8 | 0.0 | 0.00 | 0.00 | 0.13 | 73 | 1007.4 |
| 20260831024048 | 15 | 360 | 6.4 | 0.0 | 0.00 | 0.00 | 0.13 | 73 | 1007.2 |
| 20260831023551 | 15 | 360 | 6.4 | 0.0 | 0.00 | 0.00 | 0.13 | 73 | 1007.2 |
| 20260831023049 | 15 | 360 | 6.4 | 0.0 | 0.00 | 0.00 | 0.13 | 73 | 1007.3 |
| 20260831022548 | 15 | 360 | 6.4 | 0.0 | 0.00 | 0.00 | 0.13 | 73 | 1007.1 |
| 20260831022047 | 15 | 360 | 6.4 | 0.0 | 0.00 | 0.00 | 0.13 | 71 | 1007.1 |
| 20260831021546 | 16 | 360 | 6.4 | 0.0 | 0.00 | 0.00 | 0.13 | 71 | 1007.1 |
| 20260831021046 | 16 | 360 | 8.0 | 0.0 | 0.00 | 0.00 | 0.13 | 70 | 1007.2 |
| 20260831020545 | 16 | 360 | 8.0 | 0.0 | 0.00 | 0.00 | 0.13 | 70 | 1007.0 |
| 20260831020104 | 16 | 360 | 9.7 | 0.0 | 0.00 | 0.00 | 0.13 | 69 | 1006.9 |
| 20260831015545 | 17 | 360 | 11.3 | 0.0 | 0.00 | 0.00 | 0.13 | 69 | 1006.9 |
| 20260831015045 | 17 | 360 | 11.3 | 0.0 | 0.00 | 0.00 | 0.13 | 69 | 1006.7 |
| 20260831014544 | 17 | 360 | 9.7 | 0.0 | 0.00 | 0.00 | 0.13 | 71 | 1006.7 |
| 20260831014044 | 17 | 360 | 8.0 | 0.0 | 0.00 | 0.00 | 0.13 | 71 | 1006.7 |
| 20260831013546 | 18 | 360 | 8.0 | 0.0 | 0.00 | 0.00 | 0.13 | 70 | 1006.8 |
| 20260831013044 | 18 | 360 | 8.0 | 0.0 | 0.00 | 0.00 | 0.13 | 70 | 1006.8 |
| 20260831012544 | 18 | 360 | 8.0 | 0.0 | 0.00 | 0.00 | 0.13 | 69 | 1006.8 |
| 20260831012043 | 18 | 360 | 8.0 | 0.0 | 0.00 | 0.00 | 0.13 | 68 | 1006.6 |
| 20260831011546 | 18 | 360 | 9.7 | 0.0 | 0.00 | 0.00 | 0.13 | 67 | 1006.7 |
| 20260831011043 | 18 | 360 | 11.3 | 0.0 | 0.00 | 0.00 | 0.13 | 67 | 1006.7 |
| 20260831010543 | 19 | 360 | 11.3 | 0.0 | 0.00 | 0.00 | 0.13 | 66 | 1006.7 |
| 20260831010044 | 19 | 360 | 11.3 | 0.0 | 0.00 | 0.00 | 0.13 | 64 | 1006.7 |
| 20260831005543 | 20 | 360 | 11.3 | 0.0 | 0.00 | 0.00 | 0.13 | 63 | 1006.7 |
| 20260831005043 | 20 | 360 | 11.3 | 0.0 | 0.00 | 0.00 | 0.13 | 63 | 1006.7 |
| 20260831004545 | 20 | 287 | 9.7 | 0.0 | 0.00 | 0.00 | 0.13 | 62 | 1006.6 |
| 20260831004043 | 20 | 360 | 8.0 | 0.0 | 0.00 | 0.00 | 0.13 | 62 | 1006.5 |
| 20260831003543 | 20 | 269 | 6.4 | 0.0 | 0.00 | 0.00 | 0.13 | 65 | 1006.3 |
| 20260831003042 | 19 | 360 | 6.4 | 0.0 | 0.00 | 0.00 | 0.13 | 65 | 1006.2 |
| 20260831002542 | 19 | 360 | 4.8 | 0.0 | 0.00 | 0.00 | 0.13 | 66 | 1006.4 |
| 20260831002042 | 18 | 360 | 4.8 | 0.0 | 0.00 | 0.00 | 0.13 | 67 | 1006.4 |
| 20260831001543 | 18 | 360 | 4.8 | 0.0 | 0.00 | 0.00 | 0.13 | 67 | 1006.4 |
| 20260831001045 | 18 | 360 | 6.4 | 0.0 | 0.00 | 0.00 | 0.13 | 67 | 1006.2 |
| 20260831000543 | 18 | 360 | 6.4 | 0.0 | 0.00 | 0.00 | 0.13 | 68 | 1006.0 |
| 20260831000046 | 18 | 360 | 8.0 | 0.0 | 0.00 | 0.00 | 0.13 | 69 | 1006.0 |
| 20260830235542 | 18 | 360 | 8.0 | 0.0 | 0.00 | 0.00 | 0.13 | 70 | 1006.2 |
| 20260830235043 | 18 | 360 | 6.4 | 0.0 | 0.00 | 0.00 | 0.13 | 70 | 1006.3 |
| 20260830234542 | 18 | 360 | 4.8 | 0.0 | 0.00 | 0.00 | 0.13 | 67 | 1005.5 |
| 20260830234043 | 19 | 360 | 6.4 | 0.0 | 0.00 | 0.00 | 0.13 | 65 | 1005.2 |
| 20260830233543 | 19 | 360 | 9.7 | 0.0 | 0.00 | 0.00 | 0.13 | 62 | 1006.7 |
| 20260830233045 | 19 | 360 | 11.3 | 0.0 | 0.00 | 0.00 | 0.13 | 62 | 1006.8 |
| 20260830232543 | 19 | 360 | 9.7 | 0.0 | 0.00 | 0.00 | 0.13 | 62 | 1007.0 |
| 20260830232041 | 19 | 360 | 9.7 | 0.0 | 0.00 | 0.00 | 0.13 | 63 | 1007.0 |
| 20260830231540 | 19 | 360 | 9.7 | 0.0 | 0.00 | 0.00 | 0.13 | 64 | 1007.0 |
| 20260830231039 | 19 | 360 | 9.7 | 0.0 | 0.00 | 0.00 | 0.13 | 64 | 1006.7 |
| 20260830230539 | 19 | 360 | 14.5 | 0.0 | 0.00 | 0.00 | 0.13 | 64 | 1006.4 |
| 20260830230038 | 19 | 360 | 17.7 | 0.0 | 0.00 | 0.00 | 0.13 | 64 | 1006.9 |
| 20260830225538 | 20 | 360 | 17.7 | 0.0 | 0.00 | 0.00 | 0.13 | 65 | 1007.0 |
| 20260830225038 | 20 | 360 | 19.3 | 0.0 | 0.00 | 0.00 | 0.13 | 64 | 1007.1 |
| 20260830224536 | 20 | 360 | 20.9 | 0.0 | 0.00 | 0.00 | 0.13 | 63 | 1006.7 |
| 20260830224037 | 20 | 360 | 25.7 | 0.0 | 0.00 | 0.00 | 0.13 | 63 | 1006.6 |
| 20260830223537 | 20 | 360 | 27.4 | 0.0 | 0.00 | 0.00 | 0.13 | 64 | 1006.6 |
| 20260830223036 | 20 | 360 | 25.7 | 0.0 | 0.00 | 0.00 | 0.13 | 63 | 1006.5 |
| 20260830222537 | 20 | 360 | 24.1 | 0.0 | 0.00 | 0.00 | 0.13 | 61 | 1005.9 |
| 20260830222033 | 20 | 360 | 25.7 | 0.0 | 0.00 | 0.00 | 0.13 | 61 | 1005.6 |
| 20260830221538 | 21 | 360 | 27.4 | 0.0 | 0.00 | 0.00 | 0.13 | 59 | 1005.6 |
| 20260830221031 | 20 | 360 | 30.6 | 0.0 | 0.00 | 0.00 | 0.13 | 62 | 1005.6 |
| 20260830220531 | 20 | 360 | 32.2 | 0.0 | 0.00 | 0.00 | 0.13 | 62 | 1005.2 |
| 20260830220030 | 20 | 360 | 32.2 | 0.0 | 0.00 | 0.00 | 0.13 | 61 | 1004.9 |
| 20260830215530 | 20 | 360 | 32.2 | 0.0 | 0.00 | 0.00 | 0.13 | 61 | 1004.6 |
| 20260830215030 | 20 | 360 | 33.8 | 0.0 | 0.00 | 0.00 | 0.13 | 64 | 1004.6 |
| 20260830214528 | 20 | 360 | 33.8 | 0.0 | 0.00 | 0.00 | 0.13 | 64 | 1004.6 |
| 20260830214029 | 20 | 360 | 30.6 | 0.0 | 0.00 | 0.00 | 0.13 | 70 | 1004.7 |
| 20260830213529 | 18 | 360 | 29.0 | 0.0 | 0.00 | 0.00 | 0.13 | 81 | 1004.7 |
| 20260830213035 | 18 | 360 | 27.4 | 0.0 | 0.00 | 0.00 | 0.13 | 81 | 1004.7 |
| 20260830212529 | 18 | 360 | 27.4 | 0.0 | 0.00 | 0.00 | 0.13 | 80 | 1005.1 |
| 20260830212028 | 20 | 360 | 25.7 | 0.0 | 0.00 | 0.00 | 0.13 | 77 | 1005.1 |
| 20260830211528 | 21 | 360 | 22.5 | 0.0 | 0.00 | 0.00 | 0.13 | 72 | 1005.0 |
| 20260830211031 | 22 | 360 | 19.3 | 0.0 | 0.00 | 0.00 | 0.13 | 68 | 1004.9 |
| 20260830210527 | 22 | 360 | 19.3 | 0.0 | 0.00 | 0.00 | 0.13 | 70 | 1004.8 |
| 20260830210027 | 21 | 360 | 20.9 | 0.0 | 0.00 | 0.00 | 0.13 | 70 | 1004.3 |
| 20260830205527 | 22 | 298 | 19.3 | 0.0 | 0.00 | 0.00 | 0.13 | 67 | 1004.0 |
| 20260830205027 | 22 | 284 | 19.3 | 0.0 | 0.00 | 0.00 | 0.13 | 66 | 1004.2 |
| 20260830204526 | 22 | 283 | 22.5 | 0.0 | 0.00 | 0.00 | 0.13 | 67 | 1004.2 |
| 20260830204026 | 22 | 294 | 20.9 | 0.0 | 0.00 | 0.00 | 0.13 | 66 | 1003.9 |
| 20260830203526 | 22 | 296 | 19.3 | 0.0 | 0.00 | 0.00 | 0.13 | 68 | 1003.8 |
| 20260830203026 | 22 | 300 | 19.3 | 0.0 | 0.00 | 0.00 | 0.13 | 67 | 1003.9 |
| 20260830202526 | 22 | 360 | 19.3 | 0.0 | 0.00 | 0.00 | 0.13 | 67 | 1003.8 |
| 20260830202026 | 22 | 360 | 20.9 | 0.0 | 0.00 | 0.00 | 0.13 | 67 | 1003.8 |
| 20260830201526 | 23 | 290 | 22.5 | 0.0 | 0.00 | 0.00 | 0.13 | 66 | 1003.8 |
| 20260830201027 | 23 | 281 | 22.5 | 0.0 | 0.00 | 0.00 | 0.13 | 65 | 1003.8 |
| 20260830200525 | 24 | 270 | 25.7 | 0.0 | 0.00 | 0.00 | 0.13 | 63 | 1003.8 |
| 20260830200025 | 25 | 285 | 25.7 | 0.0 | 0.00 | 0.00 | 0.13 | 63 | 1003.8 |
| 20260830195525 | 25 | 360 | 25.7 | 0.0 | 0.00 | 0.00 | 0.13 | 63 | 1003.8 |
| 20260830195025 | 25 | 268 | 27.4 | 0.0 | 0.00 | 0.00 | 0.13 | 63 | 1003.8 |
| 20260830194525 | 25 | 280 | 27.4 | 0.0 | 0.00 | 0.00 | 0.13 | 64 | 1003.8 |
| 20260830194025 | 25 | 282 | 25.7 | 0.0 | 0.00 | 0.00 | 0.13 | 66 | 1003.7 |
| 20260830193526 | 25 | 277 | 22.5 | 0.0 | 0.00 | 0.00 | 0.13 | 68 | 1003.7 |
| 20260830193024 | 25 | 303 | 20.9 | 0.0 | 0.00 | 0.00 | 0.13 | 69 | 1003.6 |
| 20260830192523 | 24 | 286 | 19.3 | 0.0 | 0.00 | 0.00 | 0.13 | 69 | 1003.8 |
| 20260830192027 | 24 | 292 | 20.9 | 0.0 | 0.00 | 0.00 | 0.13 | 69 | 1003.7 |
| 20260830191528 | 25 | 274 | 20.9 | 0.0 | 0.00 | 0.00 | 0.13 | 69 | 1003.6 |
| 20260830191023 | 25 | 310 | 22.5 | 0.0 | 0.00 | 0.00 | 0.13 | 67 | 1003.5 |
| 20260830190523 | 26 | 290 | 20.9 | 0.0 | 0.00 | 0.00 | 0.13 | 66 | 1003.4 |
| 20260830190025 | 26 | 332 | 19.3 | 0.0 | 0.00 | 0.00 | 0.13 | 66 | 1003.3 |
| 20260830185525 | 26 | 277 | 20.9 | 0.0 | 0.00 | 0.00 | 0.13 | 65 | 1003.3 |
| 20260830185022 | 26 | 360 | 20.9 | 0.0 | 0.00 | 0.00 | 0.13 | 64 | 1003.3 |
| 20260830184523 | 26 | 271 | 19.3 | 0.0 | 0.00 | 0.00 | 0.13 | 66 | 1003.3 |
| 20260830184022 | 25 | 279 | 16.1 | 0.0 | 0.00 | 0.00 | 0.13 | 67 | 1003.4 |
| 20260830183523 | 25 | 281 | 14.5 | 0.0 | 0.00 | 0.00 | 0.13 | 67 | 1003.4 |
| 20260830183024 | 25 | 291 | 14.5 | 0.0 | 0.00 | 0.00 | 0.13 | 68 | 1003.5 |
| 20260830182527 | 25 | 309 | 12.9 | 0.0 | 0.00 | 0.00 | 0.13 | 68 | 1003.3 |
| 20260830182026 | 26 | 351 | 12.9 | 0.0 | 0.00 | 0.00 | 0.13 | 65 | 1003.1 |
| 20260830181524 | 26 | 305 | 12.9 | 0.0 | 0.00 | 0.00 | 0.13 | 65 | 1003.0 |
| 20260830181030 | 26 | 305 | 11.3 | 0.0 | 0.00 | 0.00 | 0.13 | 66 | 1003.0 |
| 20260830180524 | 26 | 322 | 11.3 | 0.0 | 0.00 | 0.00 | 0.13 | 66 | 1003.2 |
| 20260830180023 | 26 | 313 | 11.3 | 0.0 | 0.00 | 0.00 | 0.13 | 66 | 1003.2 |
| 20260830175523 | 26 | 329 | 11.3 | 0.0 | 0.00 | 0.00 | 0.13 | 65 | 1003.1 |
| 20260830175022 | 26 | 334 | 12.9 | 0.0 | 0.00 | 0.00 | 0.13 | 67 | 1003.2 |
| 20260830174525 | 26 | 310 | 12.9 | 0.0 | 0.00 | 0.00 | 0.13 | 66 | 1003.2 |
| 20260830174022 | 26 | 325 | 12.9 | 0.0 | 0.00 | 0.00 | 0.13 | 65 | 1003.2 |
| 20260830173522 | 26 | 305 | 14.5 | 0.0 | 0.00 | 0.00 | 0.13 | 66 | 1003.4 |
| 20260830173020 | 25 | 332 | 14.5 | 0.0 | 0.00 | 0.00 | 0.13 | 67 | 1003.3 |
| 20260830172520 | 25 | 296 | 14.5 | 0.0 | 0.00 | 0.00 | 0.13 | 67 | 1003.3 |
| 20260830172020 | 25 | 275 | 12.9 | 0.0 | 0.00 | 0.00 | 0.13 | 66 | 1003.3 |
| 20260830171520 | 25 | 315 | 12.9 | 0.0 | 0.00 | 0.00 | 0.13 | 67 | 1003.2 |
| 20260830171021 | 25 | 279 | 12.9 | 0.0 | 0.00 | 0.00 | 0.13 | 66 | 1003.2 |
| 20260830170523 | 25 | 290 | 14.5 | 0.0 | 0.00 | 0.00 | 0.13 | 65 | 1003.1 |
| 20260830170037 | 26 | 293 | 16.1 | 0.0 | 0.00 | 0.00 | 0.13 | 66 | 1003.1 |
| 20260830165520 | 26 | 300 | 16.1 | 0.0 | 0.00 | 0.00 | 0.13 | 66 | 1003.0 |
| 20260830165023 | 26 | 323 | 14.5 | 0.0 | 0.00 | 0.00 | 0.13 | 65 | 1002.9 |
| 20260830164520 | 26 | 300 | 9.7 | 0.0 | 0.00 | 0.00 | 0.13 | 64 | 1002.9 |
| 20260830164020 | 26 | 285 | 8.0 | 0.0 | 0.00 | 0.00 | 0.13 | 61 | 1002.8 |
| 20260830163517 | 25 | 360 | 8.0 | 0.0 | 0.00 | 0.00 | 0.13 | 62 | 1002.9 |
| 20260830163017 | 25 | 360 | 6.4 | 0.0 | 0.00 | 0.00 | 0.13 | 63 | 1002.9 |
| 20260830162517 | 25 | 360 | 6.4 | 0.0 | 0.00 | 0.00 | 0.13 | 66 | 1002.9 |
| 20260830162017 | 25 | 360 | 8.0 | 0.0 | 0.00 | 0.00 | 0.13 | 66 | 1002.9 |
| 20260830161515 | 25 | 360 | 8.0 | 0.0 | 0.00 | 0.00 | 0.13 | 67 | 1003.0 |
| 20260830161014 | 25 | 360 | 8.0 | 0.0 | 0.00 | 0.00 | 0.13 | 67 | 1003.1 |
| 20260830160511 | 24 | 191 | 6.4 | 0.0 | 0.00 | 0.00 | 0.13 | 71 | 1003.1 |
| 20260830160010 | 24 | 360 | 6.4 | 0.0 | 0.00 | 0.00 | 0.13 | 73 | 1003.3 |
| 20260830155509 | 23 | 360 | 8.0 | 0.0 | 0.00 | 0.00 | 0.13 | 74 | 1003.3 |
| 20260830155010 | 23 | 360 | 8.0 | 0.0 | 0.00 | 0.00 | 0.13 | 75 | 1003.3 |
| 20260830154507 | 23 | 161 | 9.7 | 0.0 | 0.00 | 0.00 | 0.13 | 76 | 1003.2 |
| 20260830154006 | 23 | 184 | 8.0 | 0.0 | 0.00 | 0.00 | 0.13 | 77 | 1003.2 |
| 20260830153510 | 23 | 360 | 8.0 | 0.0 | 0.00 | 0.00 | 0.13 | 80 | 1003.0 |
| 20260830153005 | 23 | 178 | 8.0 | 0.0 | 0.00 | 0.00 | 0.13 | 80 | 1003.0 |
| 20260830152505 | 22 | 165 | 9.7 | 0.0 | 0.00 | 0.00 | 0.13 | 80 | 1003.1 |
| 20260830152004 | 22 | 360 | 9.7 | 0.0 | 0.00 | 0.00 | 0.13 | 80 | 1003.1 |
| 20260830151502 | 22 | 167 | 8.0 | 0.0 | 0.00 | 0.00 | 0.13 | 81 | 1003.1 |
| 20260830151100 | 22 | 360 | 8.0 | 0.0 | 0.00 | 0.00 | 0.13 | 81 | 1003.2 |
| 20260830151002 | 22 | 129 | 8.0 | 0.0 | 0.00 | 0.00 | 0.13 | 82 | 1003.2 |
| 20260830150600 | 22 | 360 | 9.7 | 0.0 | 0.00 | 0.00 | 0.13 | 82 | 1003.4 |
| 20260830145558 | 21 | 360 | 9.7 | 0.0 | 0.00 | 0.00 | 0.13 | 83 | 1003.4 |
| 20260830145057 | 21 | 360 | 11.3 | 0.0 | 0.00 | 0.00 | 0.13 | 82 | 1003.3 |
| 20260830144558 | 21 | 360 | 11.3 | 0.0 | 0.00 | 0.00 | 0.13 | 83 | 1003.3 |
| 20260830144058 | 21 | 360 | 11.3 | 0.0 | 0.00 | 0.00 | 0.13 | 83 | 1003.3 |
| 20260830143554 | 21 | 360 | 11.3 | 0.0 | 0.00 | 0.00 | 0.13 | 83 | 1003.2 |
| 20260830142554 | 20 | 135 | 8.0 | 0.0 | 0.00 | 0.00 | 0.13 | 83 | 1003.4 |
| 20260830142053 | 20 | 360 | 8.0 | 0.0 | 0.00 | 0.00 | 0.13 | 83 | 1003.5 |
| 20260830141553 | 20 | 360 | 8.0 | 0.0 | 0.00 | 0.00 | 0.13 | 83 | 1003.5 |
| 20260830141053 | 20 | 360 | 8.0 | 0.0 | 0.00 | 0.00 | 0.13 | 82 | 1003.6 |
| 20260830140552 | 20 | 360 | 8.0 | 0.0 | 0.00 | 0.00 | 0.13 | 84 | 1003.6 |
| 20260830135552 | 20 | 360 | 9.7 | 0.0 | 0.00 | 0.00 | 0.13 | 86 | 1003.5 |
| 20260830135052 | 19 | 360 | 8.0 | 0.0 | 0.00 | 0.00 | 0.13 | 86 | 1003.6 |
| 20260830134556 | 19 | 360 | 6.4 | 0.0 | 0.00 | 0.00 | 0.13 | 87 | 1003.6 |
| 20260830134051 | 18 | 360 | 1.6 | 0.0 | 0.00 | 0.00 | 0.13 | 88 | 1003.7 |
| 20260830133550 | 17 | 360 | 0.0 | 0.0 | 0.00 | 0.00 | 0.13 | 88 | 1003.6 |
| 20260830132552 | 17 | 360 | 0.0 | 0.0 | 0.00 | 0.00 | 0.13 | 87 | 1003.8 |
| 20260830132055 | 17 | 360 | 0.0 | 0.0 | 0.00 | 0.00 | 0.13 | 87 | 1003.7 |
| 20260830131558 | 17 | 360 | 0.0 | 0.0 | 0.00 | 0.00 | 0.13 | 87 | 1003.6 |
| 20260830131051 | 16 | 360 | 0.0 | 0.0 | 0.00 | 0.00 | 0.13 | 87 | 1003.6 |
| 20260830130553 | 16 | 360 | 0.0 | 0.0 | 0.00 | 0.00 | 0.13 | 87 | 1003.5 |
| 20260830130053 | 16 | 360 | 1.6 | 0.0 | 0.00 | 0.00 | 0.13 | 86 | 1003.6 |
| 20260830125551 | 16 | 360 | 3.2 | 0.0 | 0.00 | 0.00 | 0.13 | 86 | 1003.6 |
| 20260830125050 | 16 | 360 | 4.8 | 0.0 | 0.00 | 0.00 | 0.13 | 86 | 1003.7 |
| 20260830124551 | 16 | 360 | 4.8 | 0.0 | 0.00 | 0.00 | 0.13 | 87 | 1003.7 |
| 20260830124050 | 16 | 360 | 3.2 | 0.0 | 0.00 | 0.00 | 0.13 | 87 | 1003.6 |
| 20260830123551 | 16 | 360 | 0.0 | 0.0 | 0.00 | 0.00 | 0.13 | 87 | 1003.7 |
| 20260830122550 | 16 | 360 | 0.0 | 0.0 | 0.00 | 0.00 | 0.13 | 88 | 1003.6 |
| 20260830122049 | 16 | 360 | 0.0 | 0.0 | 0.00 | 0.00 | 0.13 | 87 | 1003.6 |
| 20260830121547 | 16 | 360 | 0.0 | 0.0 | 0.00 | 0.00 | 0.13 | 86 | 1003.9 |
| 20260830121046 | 16 | 360 | 0.0 | 0.0 | 0.00 | 0.00 | 0.13 | 87 | 1004.0 |
| 20260830120545 | 16 | 360 | 0.0 | 0.0 | 0.00 | 0.00 | 0.13 | 86 | 1004.0 |
| 20260830120044 | 16 | 360 | 1.6 | 0.0 | 0.00 | 0.00 | 0.13 | 86 | 1004.0 |
| 20260830115544 | 17 | 360 | 3.2 | 0.0 | 0.00 | 0.00 | 0.13 | 86 | 1004.0 |
| 20260830115044 | 17 | 360 | 3.2 | 0.0 | 0.00 | 0.00 | 0.13 | 86 | 1004.0 |
| 20260830114552 | 17 | 360 | 3.2 | 0.0 | 0.00 | 0.00 | 0.13 | 87 | 1004.0 |
| 20260830114044 | 17 | 360 | 3.2 | 0.0 | 0.00 | 0.00 | 0.13 | 86 | 1004.1 |
| 20260830113543 | 17 | 360 | 4.8 | 0.0 | 0.00 | 0.00 | 0.13 | 87 | 1004.1 |
| 20260830112545 | 17 | 360 | 8.0 | 0.0 | 0.00 | 0.00 | 0.13 | 87 | 1004.1 |
| 20260830112045 | 17 | 360 | 9.7 | 0.0 | 0.00 | 0.00 | 0.13 | 86 | 1004.0 |
| 20260830111546 | 17 | 360 | 11.3 | 0.0 | 0.00 | 0.00 | 0.13 | 86 | 1004.0 |
| 20260830111047 | 17 | 360 | 11.3 | 0.0 | 0.00 | 0.00 | 0.13 | 86 | 1004.0 |
| 20260830110546 | 17 | 360 | 12.9 | 0.0 | 0.00 | 0.00 | 0.13 | 86 | 1004.0 |
| 20260830110046 | 17 | 360 | 11.3 | 0.0 | 0.00 | 0.00 | 0.13 | 86 | 1004.0 |
| 20260830105546 | 17 | 360 | 9.7 | 0.0 | 0.00 | 0.00 | 0.13 | 85 | 1004.0 |
| 20260830105045 | 17 | 360 | 9.7 | 0.0 | 0.00 | 0.00 | 0.13 | 85 | 1004.0 |
| 20260830104549 | 17 | 360 | 11.3 | 0.0 | 0.00 | 0.00 | 0.13 | 85 | 1003.9 |
| 20260830104044 | 17 | 360 | 12.9 | 0.0 | 0.00 | 0.00 | 0.13 | 84 | 1004.1 |
| 20260830103544 | 17 | 360 | 12.9 | 0.0 | 0.00 | 0.00 | 0.13 | 84 | 1004.0 |
| 20260830102543 | 17 | 360 | 11.3 | 0.0 | 0.00 | 0.00 | 0.13 | 85 | 1004.1 |
| 20260830102044 | 17 | 360 | 9.7 | 0.0 | 0.00 | 0.00 | 0.13 | 85 | 1004.0 |
| 20260830101543 | 17 | 360 | 11.3 | 0.0 | 0.00 | 0.00 | 0.13 | 84 | 1004.1 |
| 20260830101043 | 17 | 360 | 11.3 | 0.0 | 0.00 | 0.00 | 0.13 | 83 | 1004.2 |
| 20260830100545 | 17 | 360 | 12.9 | 0.0 | 0.00 | 0.00 | 0.13 | 82 | 1004.1 |
| 20260830100043 | 17 | 360 | 12.9 | 0.0 | 0.00 | 0.00 | 0.13 | 81 | 1004.1 |
| 20260830095544 | 17 | 360 | 12.9 | 0.0 | 0.00 | 0.00 | 0.13 | 81 | 1004.1 |
| 20260830095043 | 17 | 360 | 11.3 | 0.0 | 0.00 | 0.00 | 0.13 | 82 | 1004.1 |